Simultaneous Nadir Overpasses (SNOs) Predictions

Prediction of SNOs between NOAA-19 and METOP-C Satellite Orbit:

Table of predicted SNOs for the next 14.0 days since TLE Epoch: 8/22/2020
Index Date (NOAA-19) Time (NOAA-19) Lat,Lon (NOAA-19) SZA (NOAA-19 ) Date (METOP-C) Time (METOP-C) Lat,Lon (METOP-C) SZA (METOP-C ) Distance(km) Time Diff (sec)
1 09/01/2020 20:49:06 -80.15, 71.36 106.91 09/01/2020 20:50:19 -80.14, 71.27 106.91 2.65 73
2 09/01/2020 21:40:10 80.15,-121.35 73.11 09/01/2020 21:40:59 80.15,-121.21 73.14 2.79 49
3 09/01/2020 22:31:06 -80.14, 46.03 106.88 09/01/2020 22:31:40 -80.15, 46.09 106.86 1.59 34
4 09/01/2020 23:22:10 80.14,-146.68 73.14 09/01/2020 23:22:21 80.14,-146.69 73.14 0.33 11
5 09/02/2020 00:13:06 -80.13, 20.70 106.86 09/02/2020 00:13:02 -80.14, 20.62 106.86 1.80 4
6 09/02/2020 01:04:10 80.13,-172.01 73.16 09/02/2020 01:03:43 80.13,-172.17 73.14 3.03 27
7 09/02/2020 01:55:07 -80.14, -4.96 106.83 09/02/2020 01:54:24 -80.13, -4.86 106.85 2.45 43
8 09/02/2020 02:46:11 80.14, 162.34 73.19 09/02/2020 02:45:05 80.11, 162.35 73.15 2.44 66
